Japanese version Home page |
Updated on February 10, 2013 |
Profile
|
Orbital ElementsEpoch 1995 Aug. 31.0 TT = JDT 2449960.5 T 1995 Aug. 15.86832 TT MPC q 4.0551262 (2000.0) P Q n 0.05105234 Peri. 224.12083 -0.39188057 -0.91367977 a 7.1965707 Node 249.22130 +0.87280629 -0.33216213 e 0.4365196 Incl. 6.62033 +0.29092748 -0.23421698 P 19.31 From 326 observations 1993 Oct. 12-2012 Sept. 25, mean residual 0".59.
|
Finding Charts |
Magnitudes Graphm1 = 4.2 + 5 log d + 15.0 log r
|
The orbital elements are published on M.P.E.C. 2012-T07.
|